Wind_Speed
29 28 29 29 30 31 28 27 25 24 23 24 19 16 18 21 17 17 17 18 17 18 18 21 23 27 28 27 23 19 14 7 6 18 25 24 29 26 26 17 24 19 23 30 21
25 26 27 29 29 27 25 25 23 23 22 19 17 16 17 18 17 15 16 18 14 17 17 20 21 23 28 29 24 21 16 11 9 17 28 28 28 32 30 27 24 27 27 26 19
24 24 25 26 25 24 24 25 22 23 22 19 16 16 16 17 16 16 15 16 15 17 18 19 20 22 28 30 26 25 17 20 18 22 32 34 32 37 34 33 36 35 25 27 33
24 26 28 27 25 24 24 24 23 22 22 20 17 16 16 15 17 18 16 16 17 18 19 17 19 22 28 28 30 25 24 22 22 25 32 38 40 37 34 33 32 34 27 29 7
29 31 28 25 24 23 23 23 21 21 20 19 18 18 17 15 18 19 15 17 19 19 20 20 20 23 28 31 31 24 26 25 24 25 29 38 43 41 35 35 34 32 22 9 13
24 21 22 20 21 23 23 22 20 20 19 19 19 19 17 17 19 21 17 19 20 21 23 23 21 21 26 28 28 26 25 25 26 25 29 36 45 45 38 37 38 31 25 19 19
23 23 21 21 23 22 21 20 19 19 20 19 19 20 17 19 21 22 18 20 20 20 22 23 23 24 27 30 29 27 26 25 25 32 31 35 37 39 42 41 42 39 30 23 21
21 20 21 23 22 21 20 19 20 20 20 20 20 19 18 19 19 21 20 21 21 20 21 22 23 26 27 30 32 33 32 26 27 32 32 35 34 32 35 37 42 44 40 33 25
20 21 21 21 21 20 19 20 19 20 19 17 18 17 19 19 19 18 18 19 21 21 22 23 23 26 28 30 31 32 30 28 28 29 29 31 31 23 16 23 35 39 39 34 30
19 19 19 20 19 19 19 19 19 19 18 17 17 16 17 18 16 17 15 16 18 20 21 21 25 29 33 34 35 35 34 33 27 29 31 30 29 28 22 13 14 24 29 26 20
17 17 18 18 18 18 18 19 19 19 19 20 20 20 19 18 18 19 17 17 18 17 17 19 26 31 34 36 36 38 38 38 35 30 36 28 29 34 28 26 17 15 17 20 23
15 16 16 17 17 15 15 17 15 14 14 14 14 15 16 15 18 20 21 18 19 22 23 24 28 28 29 32 33 37 38 38 36 34 38 34 35 34 33 27 29 29 29 27 28
12 12 12 14 14 15 16 16 14 13 14 14 15 16 14 14 14 12 9 13 14 16 19 22 26 29 32 34 34 34 35 36 37 32 35 37 42 40 39 31 34 32 32 32 32
8 7 7 7 8 8 7 6 8 7 9 9 11 14 9 14 11 7 8 9 9 10 12 17 18 24 30 34 37 40 40 38 37 37 35 35 38 41 42 39 37 38 37 33 33
6 7 7 8 8 7 8 7 8 7 6 8 9 12 10 11 12 12 13 18 16 14 15 19 21 21 26 30 32 34 34 37 38 37 38 39 37 39 39 44 42 43 43 44 44
5 5 4 5 5 6 8 8 5 6 3 10 13 12 15 11 13 15 15 14 17 17 19 21 25 26 27 29 31 33 34 34 34 35 38 40 37 42 42 41 44 48 49 51 51
5 6 7 6 6 6 7 7 7 6 8 12 16 14 13 16 18 14 13 14 16 19 21 26 28 29 28 27 31 34 35 35 35 36 41 42 43 43 43 44 45 48 51 54 57
8 8 9 10 9 8 7 8 10 12 11 13 17 17 17 18 19 20 21 17 17 19 19 16 16 18 22 21 22 22 23 25 31 38 43 44 45 49 50 49 49 49 49 53 55
11 12 13 14 14 13 12 12 13 14 15 17 19 19 19 20 23 24 24 23 20 18 21 22 19 23 25 24 23 23 25 28 29 30 32 36 41 47 51 56 53 54 55 53 54
15 16 17 18 18 19 17 13 17 20 19 17 19 18 19 19 22 26 26 25 24 21 20 23 23 25 26 27 29 29 28 29 31 34 36 39 41 42 43 48 54 55 57 61 62
17 21 20 21 22 22 22 18 19 19 21 19 18 17 17 18 20 22 24 24 24 24 21 23 26 26 28 27 28 29 30 31 33 35 37 42 40 39 43 44 43 46 50 55 59
18 21 23 24 26 25 25 25 23 21 21 20 17 17 18 19 20 21 21 22 25 25 26 25 28 28 29 29 29 29 30 31 34 34 35 34 37 35 37 41 44 42 43 51 53
21 23 21 24 27 27 27 27 28 24 22 22 21 20 21 22 22 22 23 23 25 26 25 26 28 29 30 29 27 24 27 27 25 26 28 29 30 29 27 26 30 37 38 44 49
26 27 24 23 26 30 30 28 27 26 25 24 27 25 25 24 24 24 24 25 26 25 28 26 26 30 29 26 22 23 21 18 19 23 26 25 23 26 25 26 29 31 32 30 31
27 28 28 27 26 29 32 30 28 27 27 27 29 28 27 26 26 25 25 25 26 27 27 28 31 29 27 25 23 22 21 18 20 24 22 20 24 28 30 30 26 24 25 29 32
28 28 27 26 28 30 28 26 30 29 29 29 30 30 29 29 29 27 26 26 26 29 29 29 30 25 25 25 22 19 18 16 20 21 23 27 29 27 27 27 33 29 27 27 26
27 26 26 24 25 27 28 26 25 28 30 30 29 29 30 30 29 27 27 27 27 27 31 30 27 23 23 26 24 19 18 19 20 20 22 26 27 25 27 30 30 30 30 29 27
Wind_Direction
270 273 278 283 285 285 287 289 293 295 293 290 282 272 272 270 261 263 266 267 262 255 246 245 242 239 238 245 251 258 263 288 268 222 230 237 248 253 254 276 252 235 234 212 196
272 275 277 278 281 285 288 290 295 295 292 288 279 274 270 267 262 256 260 261 248 245 244 248 250 243 237 243 246 257 262 260 253 224 218 229 243 255 254 262 264 254 231 252 191
275 278 280 282 284 286 289 290 293 290 288 284 278 274 270 265 259 258 254 253 243 244 248 251 250 239 236 239 247 248 248 256 252 227 221 225 232 247 257 260 262 279 252 267 298
273 280 284 282 282 285 291 291 288 284 283 280 274 273 269 264 257 252 251 246 242 237 248 257 252 238 234 238 243 249 249 250 253 248 237 228 234 245 255 261 268 277 273 288 21
281 283 278 275 275 283 284 289 283 279 279 276 274 271 265 257 255 258 252 250 246 243 243 247 246 239 236 236 243 247 254 257 258 264 259 249 238 244 252 254 261 275 289 287 47
278 273 273 278 283 279 282 284 283 281 277 273 271 269 265 256 255 256 250 248 248 246 245 245 249 250 244 246 251 254 253 262 263 263 264 254 239 240 250 253 258 270 278 261 279
270 269 274 277 279 280 278 278 281 278 275 272 271 267 264 259 255 256 246 250 248 250 250 245 240 242 240 245 251 254 255 254 262 263 261 258 258 253 250 251 257 266 275 286 287
277 279 279 279 278 274 272 274 273 272 271 270 269 269 268 262 255 255 251 246 247 246 244 244 239 236 242 246 250 248 249 246 255 256 262 263 263 261 258 250 248 256 268 270 276
284 281 279 277 275 272 270 267 268 268 269 270 268 266 266 262 255 250 251 251 250 244 242 240 239 237 237 239 243 248 246 243 245 250 254 259 257 259 256 256 254 260 265 270 277
281 279 277 276 277 276 272 270 268 268 270 269 267 264 258 264 265 255 241 245 249 250 248 243 241 239 238 236 237 240 242 240 235 236 240 244 255 252 251 245 238 249 259 265 265
284 281 278 277 276 274 274 271 269 268 267 266 264 260 259 260 263 262 255 246 249 248 244 241 243 243 244 246 247 247 246 244 238 229 241 235 243 252 257 252 226 238 236 252 252
289 284 280 277 275 273 270 268 273 272 262 258 257 259 257 259 262 261 257 254 255 256 251 245 248 251 252 252 250 251 251 250 244 234 238 240 242 248 255 259 252 236 236 243 241
287 283 281 276 271 264 261 266 265 268 267 260 260 260 269 260 257 261 275 271 265 263 266 262 265 262 259 258 257 256 255 254 252 244 244 244 248 247 247 251 259 260 258 260 250
294 290 285 278 270 266 268 263 254 252 266 273 260 266 266 258 267 271 279 282 273 281 283 279 273 268 267 265 263 261 259 256 253 250 241 246 256 257 252 246 251 258 260 257 258
304 298 289 286 286 277 260 252 255 260 228 236 247 266 263 288 313 323 323 318 312 300 292 285 278 269 275 268 265 265 266 268 263 261 261 258 262 260 261 257 251 251 254 259 261
325 317 311 316 314 309 292 283 285 278 287 227 245 274 295 305 317 315 316 306 300 303 300 290 286 279 275 273 275 276 274 271 271 270 267 265 264 263 263 258 255 254 253 256 260
324 317 310 304 305 313 310 302 286 267 269 249 255 274 275 297 302 304 302 297 295 298 293 289 289 290 291 290 291 287 285 276 266 264 267 268 268 266 265 261 257 252 252 255 256
312 309 303 300 299 295 297 297 287 286 275 264 263 272 286 292 291 292 294 297 306 308 298 293 291 294 300 301 299 296 295 291 284 275 266 263 261 265 263 261 262 261 257 254 257
297 295 294 295 297 296 294 290 285 277 274 272 280 291 297 295 294 293 297 302 308 305 295 296 292 296 302 305 305 304 301 300 296 290 286 279 266 261 263 258 257 262 263 264 260
295 291 290 293 293 291 288 288 283 281 274 274 277 285 289 287 287 290 294 296 298 302 303 298 297 298 300 303 306 306 306 304 303 302 299 291 284 278 268 264 262 263 261 262 265
289 287 290 287 289 289 290 285 278 274 276 279 280 287 292 290 284 282 285 290 296 297 297 292 296 299 299 300 300 305 306 306 305 305 303 298 291 284 278 276 271 265 264 263 262
283 280 292 292 290 290 288 286 278 271 268 272 279 287 291 292 291 291 291 292 290 289 291 291 294 295 295 294 297 306 304 308 310 308 308 308 303 305 294 285 279 274 267 260 263
281 280 280 282 283 282 279 280 280 276 272 276 278 283 288 291 293 293 293 295 296 296 298 297 294 292 293 292 300 301 303 309 306 304 313 318 309 306 307 307 294 285 281 272 265
285 286 285 276 272 273 272 271 272 274 273 275 280 284 287 290 293 294 296 296 299 299 300 297 294 291 287 284 292 298 307 300 301 306 316 321 320 312 310 307 304 296 294 290 283
290 289 288 284 271 268 274 277 272 268 269 270 274 280 284 287 289 293 297 300 302 304 306 302 303 289 285 284 285 292 306 299 298 300 308 309 316 311 305 306 308 309 298 288 288
291 287 283 280 279 278 269 268 275 277 275 276 278 281 284 286 288 293 296 300 302 305 306 305 305 286 287 280 283 290 300 301 297 304 304 315 317 318 306 313 309 304 307 305 290
291 289 287 282 276 272 276 279 277 277 279 280 282 279 280 282 288 291 293 295 299 302 301 306 296 284 290 281 280 291 292 294 300 302 305 303 311 312 310 311 312 308 307 301 293
Height
5876 5875 5875 5874 5873 5872 5870 5868 5866 5864 5862 5860 5859 5859 5859 5859 5858 5858 5859 5858 5859 5858 5859 5858 5860 5861 5863 5865 5867 5869 5872 5872 5871 5871 5871 5870 5870 5871 5872 5872 5869 5871 5874 5873 5871
5870 5870 5869 5868 5867 5866 5864 5863 5861 5859 5858 5856 5855 5855 5854 5854 5854 5853 5855 5853 5855 5854 5855 5855 5857 5858 5860 5859 5864 5866 5869 5869 5867 5866 5866 5865 5866 5866 5869 5872 5867 5867 5868 5870 5865
5865 5864 5864 5862 5861 5859 5858 5857 5855 5854 5853 5852 5851 5851 5850 5850 5850 5850 5850 5850 5851 5851 5851 5851 5853 5854 5855 5856 5859 5862 5865 5863 5863 5860 5859 5859 5860 5860 5864 5867 5867 5863 5869 5868 5871
5860 5859 5858 5856 5855 5853 5852 5851 5850 5849 5849 5848 5847 5846 5846 5846 5847 5845 5846 5846 5847 5848 5848 5848 5849 5850 5850 5852 5852 5857 5859 5859 5859 5856 5853 5854 5852 5855 5860 5862 5863 5864 5869 5872 5865
5854 5853 5851 5850 5849 5848 5847 5846 5845 5844 5843 5843 5842 5842 5843 5843 5842 5841 5842 5842 5843 5844 5844 5844 5844 5846 5846 5848 5848 5853 5853 5855 5855 5854 5851 5848 5848 5849 5855 5857 5859 5862 5867 5868 5868
5848 5846 5845 5844 5843 5843 5842 5841 5840 5840 5839 5838 5838 5838 5839 5840 5838 5838 5838 5837 5839 5839 5839 5839 5841 5844 5845 5846 5847 5849 5851 5851 5851 5851 5846 5843 5841 5843 5850 5853 5854 5859 5862 5864 5866
5842 5840 5839 5839 5838 5838 5837 5836 5836 5836 5835 5834 5833 5834 5834 5835 5833 5833 5834 5833 5834 5834 5834 5835 5837 5839 5840 5840 5841 5843 5844 5845 5847 5844 5841 5837 5837 5841 5844 5848 5849 5853 5855 5858 5859
5836 5834 5834 5834 5833 5833 5832 5832 5831 5831 5830 5829 5828 5829 5829 5830 5830 5828 5828 5829 5829 5829 5830 5831 5831 5832 5834 5834 5835 5835 5837 5840 5838 5837 5836 5832 5832 5832 5834 5839 5842 5844 5849 5848 5848
5830 5830 5830 5829 5828 5828 5828 5827 5826 5826 5825 5825 5825 5825 5825 5826 5826 5825 5824 5824 5824 5825 5825 5826 5827 5826 5827 5827 5828 5827 5830 5831 5831 5832 5830 5827 5828 5824 5825 5829 5833 5837 5838 5841 5842
5826 5826 5825 5824 5824 5824 5823 5823 5822 5822 5822 5821 5821 5823 5823 5822 5821 5821 5821 5820 5820 5819 5820 5821 5819 5818 5818 5817 5818 5818 5819 5821 5825 5823 5820 5819 5821 5819 5820 5825 5828 5830 5832 5833 5836
5822 5821 5820 5820 5820 5820 5820 5818 5819 5819 5817 5817 5818 5819 5818 5818 5817 5817 5817 5818 5816 5816 5816 5815 5813 5811 5812 5813 5815 5814 5814 5814 5817 5817 5814 5816 5815 5812 5812 5817 5823 5826 5826 5828 5829
5818 5817 5817 5816 5816 5816 5815 5814 5814 5815 5814 5814 5814 5814 5814 5813 5813 5812 5813 5813 5812 5812 5811 5809 5807 5807 5807 5806 5807 5807 5809 5810 5813 5812 5810 5812 5806 5806 5806 5809 5810 5811 5816 5819 5819
5816 5816 5815 5814 5813 5812 5811 5812 5812 5812 5812 5811 5810 5809 5810 5811 5810 5810 5810 5809 5808 5806 5806 5806 5805 5803 5802 5801 5801 5802 5803 5804 5806 5807 5803 5803 5801 5800 5801 5801 5800 5801 5806 5809 5812
5815 5814 5813 5812 5812 5810 5810 5811 5810 5810 5810 5810 5808 5806 5807 5805 5807 5808 5807 5807 5805 5804 5802 5800 5799 5797 5796 5796 5796 5796 5795 5796 5796 5797 5797 5796 5794 5793 5794 5796 5795 5794 5795 5796 5799
5814 5813 5811 5810 5810 5810 5809 5808 5807 5807 5809 5810 5806 5805 5803 5804 5805 5804 5802 5800 5799 5800 5799 5795 5792 5792 5789 5788 5787 5787 5789 5788 5789 5789 5788 5787 5788 5784 5785 5786 5788 5788 5787 5787 5788
5813 5811 5810 5810 5809 5809 5808 5807 5806 5807 5807 5805 5802 5801 5802 5803 5802 5800 5799 5798 5796 5794 5792 5789 5786 5785 5783 5782 5781 5780 5781 5781 5781 5782 5781 5779 5779 5778 5778 5778 5779 5779 5779 5779 5778
5812 5811 5809 5809 5808 5807 5807 5806 5806 5803 5804 5803 5800 5800 5800 5798 5796 5796 5796 5794 5793 5791 5788 5784 5781 5778 5777 5779 5776 5772 5771 5771 5772 5773 5773 5771 5769 5769 5769 5769 5769 5769 5769 5768 5769
5810 5809 5808 5807 5806 5805 5804 5804 5802 5801 5800 5799 5797 5796 5796 5794 5792 5790 5790 5790 5788 5785 5782 5780 5779 5775 5773 5773 5770 5767 5764 5762 5760 5761 5762 5761 5757 5757 5757 5759 5758 5756 5758 5759 5760
5808 5807 5805 5804 5803 5802 5802 5801 5799 5798 5797 5794 5792 5790 5790 5788 5786 5784 5783 5782 5783 5781 5778 5775 5774 5770 5767 5766 5765 5762 5758 5755 5752 5752 5749 5746 5747 5747 5746 5747 5747 5745 5745 5744 5746
5805 5803 5802 5800 5799 5798 5798 5799 5796 5793 5791 5791 5789 5787 5786 5784 5782 5780 5778 5778 5777 5776 5773 5769 5767 5764 5762 5760 5756 5753 5752 5749 5744 5741 5738 5735 5735 5733 5733 5734 5735 5736 5734 5733 5733
5802 5798 5798 5796 5795 5794 5792 5793 5793 5790 5787 5787 5785 5783 5782 5780 5778 5776 5775 5773 5770 5768 5767 5763 5761 5759 5756 5755 5752 5748 5744 5741 5736 5732 5727 5722 5724 5722 5720 5718 5719 5721 5720 5720 5721
5797 5794 5792 5790 5790 5788 5787 5786 5787 5785 5783 5782 5780 5779 5777 5775 5773 5771 5769 5767 5764 5762 5759 5758 5754 5752 5750 5747 5745 5741 5736 5732 5730 5728 5721 5716 5713 5711 5709 5707 5705 5706 5706 5706 5706
5791 5790 5789 5786 5783 5782 5781 5779 5778 5779 5778 5776 5775 5774 5772 5770 5768 5765 5763 5761 5757 5754 5753 5751 5748 5744 5741 5740 5737 5734 5730 5726 5723 5720 5717 5712 5708 5704 5700 5697 5695 5695 5694 5694 5694
5785 5782 5783 5781 5778 5774 5773 5773 5772 5772 5771 5770 5768 5768 5767 5765 5762 5759 5757 5754 5751 5748 5745 5743 5741 5737 5734 5733 5731 5727 5724 5721 5718 5714 5712 5708 5704 5700 5696 5693 5689 5687 5684 5682 5681
5778 5775 5773 5771 5770 5768 5765 5765 5766 5766 5766 5764 5762 5762 5760 5758 5756 5753 5750 5747 5744 5741 5738 5736 5731 5728 5726 5724 5723 5721 5717 5714 5712 5710 5707 5705 5701 5697 5691 5688 5685 5681 5678 5674 5672
5770 5768 5766 5764 5761 5759 5759 5760 5757 5757 5757 5757 5756 5754 5753 5751 5748 5746 5743 5740 5737 5733 5730 5728 5723 5720 5718 5716 5715 5714 5711 5708 5707 5705 5702 5698 5694 5690 5685 5681 5677 5674 5670 5666 5663
5761 5759 5757 5756 5753 5752 5751 5752 5752 5750 5749 5747 5747 5746 5745 5742 5740 5738 5736 5733 5730 5727 5722 5720 5716 5713 5712 5709 5708 5709 5705 5703 5701 5698 5695 5692 5689 5685 5680 5675 5670 5667 5663 5660 5656